Diretta Meteo Urum-Qi-Diwopu, Cinasabato 20 luglio ore 07:00

Mappa
Sereno 27 °C Sereno 24 Ore: T.min 26 T.max 37
Ponente Sud-Ovest Km/h 10.8 Punto di rugiada: 9 °C Umidità: 32% Visibilità: 10 Km
Il sole sorge alle: 04:44 Il sole tramonta alle: 19:48
20 Luglio 2019 07:00 tempo osservato: Sereno Sereno 27 32 1007 vento: Nord SO 10.8
20 Luglio 2019 06:30 tempo osservato: Sereno Sereno 26 36 1007 vento: Nord N 7.2
20 Luglio 2019 06:00 tempo osservato: Poco Nuvoloso Poco Nuvoloso 26 34 1006 vento: Nord N 7.2
20 Luglio 2019 05:30 tempo osservato: Poco Nuvoloso Poco Nuvoloso 29 25 1006 vento: Nord S/SE 10.8
20 Luglio 2019 05:00 tempo osservato: Poco Nuvoloso Poco Nuvoloso 30 23 1006 vento: Nord S 10.8
20 Luglio 2019 04:30 tempo osservato: Poco Nuvoloso Poco Nuvoloso 30 25 1006 vento: Nord S/SO 10.8
20 Luglio 2019 04:00 tempo osservato: Temporale Temporale 30 23 1005 vento: Nord S/SO 14.4
20 Luglio 2019 03:00 tempo osservato: Debole Rovescio di Pioggia Debole Rovescio di Pioggia 29 26 1005 vento: Nord SO 18
20 Luglio 2019 02:30 tempo osservato: Sereno Sereno 28 24 1006 vento: Nord N 7.2
20 Luglio 2019 02:00 tempo osservato: Temporale Temporale 28 24 1006 vento: Nord N 7.2
20 Luglio 2019 01:30 tempo osservato: Temporale Temporale 28 24 1005 vento: Nord S/SE 10.8
20 Luglio 2019 01:00 tempo osservato: Sereno Sereno 29 23 1005 vento: Nord S/SE 14.4
20 Luglio 2019 00:30 tempo osservato: Sereno Sereno 29 23 1005 vento: Nord S 10.8
20 Luglio 2019 00:00 tempo osservato: Sereno Sereno 30 22 1005 vento: Nord S 18
19 Luglio 2019 23:30 tempo osservato: Sereno Sereno 30 22 1005 vento: Nord S 21.6
19 Luglio 2019 23:00 tempo osservato: Sereno Sereno 30 22 1005 vento: Nord S 18
19 Luglio 2019 22:30 tempo osservato: Sereno Sereno 30 22 1005 vento: Nord S 18
19 Luglio 2019 22:00 tempo osservato: Sereno Sereno 30 22 1005 vento: Nord S 18
19 Luglio 2019 21:30 tempo osservato: Sereno Sereno 30 22 1005 vento: Nord S 21.6
19 Luglio 2019 21:00 tempo osservato: Sereno Sereno 30 23 1005 vento: Nord S/SO 25.2
19 Luglio 2019 20:30 tempo osservato: Sereno Sereno 30 25 1005 vento: Nord S 25.2
19 Luglio 2019 20:00 tempo osservato: Sereno Sereno 30 25 1005 vento: Nord S/SO 28.8
19 Luglio 2019 19:30 tempo osservato: Sereno Sereno 31 23 1005 vento: Nord SO 32.4
19 Luglio 2019 19:00 tempo osservato: Sereno Sereno 32 21 1005 vento: Nord S/SO 32.4
19 Luglio 2019 18:30 tempo osservato: Sereno Sereno 33 19 1005 vento: Nord SO 36
19 Luglio 2019 18:00 tempo osservato: Sereno Sereno 33 18 1005 vento: Nord SO 32.4
19 Luglio 2019 17:30 tempo osservato: Sereno Sereno 34 17 1005 vento: Nord SO 14.4
19 Luglio 2019 17:00 tempo osservato: Sereno Sereno 34 18 1005 vento: Nord SO 21.6
19 Luglio 2019 16:30 tempo osservato: Poco Nuvoloso Poco Nuvoloso 34 18 1005 vento: Nord O/SO 28.8
19 Luglio 2019 16:00 tempo osservato: Poco Nuvoloso Poco Nuvoloso 36 14 1005 vento: Nord O/NO 10.8
19 Luglio 2019 15:30 tempo osservato: Poco Nuvoloso Poco Nuvoloso 36 12 1005 vento: Nord N 10.8
19 Luglio 2019 15:00 tempo osservato: Poco Nuvoloso Poco Nuvoloso 36 12 1004 vento: Nord N 14.4
19 Luglio 2019 14:30 tempo osservato: Poco Nuvoloso Poco Nuvoloso 37 12 1004 vento: Nord N 14.4
19 Luglio 2019 14:00 tempo osservato: Poco Nuvoloso Poco Nuvoloso 37 14 1005 vento: Nord N/NE 10.8
19 Luglio 2019 13:30 tempo osservato: Poco Nuvoloso Poco Nuvoloso 37 14 1005 vento: Nord N/NE 14.4
19 Luglio 2019 13:00 tempo osservato: Sereno Sereno 37 17 1005 vento: Nord N 14.4
19 Luglio 2019 12:30 tempo osservato: Sereno Sereno 36 18 1005 vento: Nord N/NO 14.4
19 Luglio 2019 12:00 tempo osservato: Sereno Sereno 35 21 1006 vento: Nord N 14.4
19 Luglio 2019 11:30 tempo osservato: Sereno Sereno 35 20 1006 vento: Nord N/NO 14.4
19 Luglio 2019 11:00 tempo osservato: Sereno Sereno 36 18 1006 vento: Nord N 7.2
19 Luglio 2019 10:30 tempo osservato: Sereno Sereno 35 17 1006 vento: Nord NO 10.8
19 Luglio 2019 10:00 tempo osservato: Sereno Sereno 35 16 1006 vento: Nord N/NO 10.8
19 Luglio 2019 09:30 tempo osservato: Sereno Sereno 34 18 1007 vento: Nord N 7.2
19 Luglio 2019 09:00 tempo osservato: Sereno Sereno 34 18 1007 vento: Nord N 3.6
19 Luglio 2019 08:30 tempo osservato: Sereno Sereno 33 21 1007 vento: Nord N 7.2
19 Luglio 2019 08:00 tempo osservato: Sereno Sereno 33 21 1007 vento: Nord S 10.8